Preview of NWS' New Version of Forecast
This preview is not operational and should not be used for support decisions.

Regional Weather Roundup (RWR)

Issued by National Weather Service (NWS)

                            
000
ASCA42 TJSJ 190710
RWRPR 
PUERTO RICO/U.S. VIRGIN ISLANDS HOURLY WEATHER ROUNDUP
NATIONAL WEATHER SERVICE SAN JUAN PR
300 AM AST TUE MAR 19 2019

PRZ001>002-007>008-010-190800-
PUERTO RICO
  
CITY           SKY/WX    TMP DP  RH WIND       PRES   REMARKS
SAN JUAN LMM   PTCLDY    72  64  78 CALM      30.00F                  
$$

VIZ001>002-190800-
U.S. VIRGIN ISLANDS
  
CITY           SKY/WX    TMP DP  RH WIND       PRES   REMARKS
CHARLOTTE AMA  CLEAR     73  64  73 E7        30.00F                  
CHRISTIANSTED  MOCLDY    73  63  68 NE3       30.00F                  
$$

HOURLY WEATHER ROUNDUP FOR THE NEWS MEDIA
  
CITY           SKY/WX    TMP DP  RH WIND       PRES   REMARKS
ORLANDO        CLOUDY    58  50  75 N3        30.13F                  
NEW YORK       FAIR      36  30  79 CALM      30.37R                  
NEWARK         FAIR      37  15  40 NW10      30.37R WCI  30          
CHICAGO        MOCLDY    33  25  72 SW6       30.36S WCI  28          
HARTFORD       FAIR      23  18  81 CALM      30.33R                  
BOSTON         FAIR      35  10  35 W8        30.31S WCI  29          
DALLAS         MOCLDY    54  40  59 CALM      30.25S                  
PHILADELPHIA   FAIR      34  22  61 SW6       30.38R WCI  29          
LOS ANGELES    PTCLDY    57  54  89 E6        29.99S                  
WASHINGTON DC  FAIR      29  18  63 NW5       30.39F WCI  24